Weather History for Ashtabula, OH

Change the Weather History Date:

Sunday, October 7, 2012

  Actual Average (KYNG) Record (KYNG)
Temperature  
Mean Temperature 44 °F 54 °F  
Max Temperature 46 °F 64 °F 87 °F (1941)
Min Temperature 42 °F 44 °F 26 °F (1999)
Degree Days  
Heating Degree Days 21 12  
Month to date heating degree days 75  
Since 1 July heating degree days 258  
Cooling Degree Days 0 0  
Month to date cooling degree days 3  
Year to date cooling degree days 541  
Moisture  
Dew Point 39 °F    
Average Humidity 81    
Maximum Humidity 89    
Minimum Humidity 73    
Precipitation  
Precipitation 0.09 in 0.09 in 1.08 in (1951)
Month to date precipitation 0.68  
Year to date precipitation 30.65  
Snow  
Snow 0.00 in 0.00 in - ()
Month to date snowfall 0.0  
Since 1 July snowfall 0.0  
Since 1 September snowfall 0.0  
Snow Depth -    
Sea Level Pressure  
Sea Level Pressure 30.10 in    
Wind  
Wind Speed 5 mph (WSW)    
Max Wind Speed 12 mph    
Max Gust Speed -    
Visibility 10 miles    
Events Rain    
T = Trace of Precipitation, MM = Missing Value Source: NWS Daily Summary

Daily Weather History Graph

Daily Weather History Graph

Search for Another Location

Airport:

Trip Planner

Search our weather history database for the weather conditions in past years. The results will help you decide how hot, cold, wet, or windy it might be!

Date:

Astronomy

Oct. 07, 2012 Rise Set
Actual Time 7:26 AM EDT 6:53 PM EDT
Civil Twilight 6:58 AM EDT 7:21 PM EDT
Nautical Twilight 6:26 AM EDT 7:53 PM EDT
Astronomical Twilight 5:54 AM EDT 8:25 PM EDT
Moon No Moon Rise 2:06 PM EDT (10/7)
Length of Visible Light 12h 22m
Length of Day
11h 26m
Waning Gibbous, 56% of the Moon is Illuminated
Oct 7
Waning Gibbous
Oct 8
Last Quarter
Oct 15
New
Oct 21
First Quarter
Oct 29
Full

Hourly Weather History & Observations

Time (EDT) Temp. Windchill Dew Point Humidity Pressure Visibility Wind Dir Wind Speed Gust Speed Precip Events Conditions
12:53 AM 46.0 °F 44.8 °F 37.9 °F 73% 30.09 in 10.0 mi SSW 3.5 mph - N/A   Overcast
1:53 AM 45.0 °F 42.6 °F 37.9 °F 76% 30.09 in 10.0 mi SSW 4.6 mph - N/A   Partly Cloudy
2:53 AM 45.0 °F 42.6 °F 37.9 °F 76% 30.10 in 10.0 mi West 4.6 mph - N/A   Overcast
3:53 AM 44.1 °F - 39.0 °F 82% 30.08 in 10.0 mi Calm Calm - N/A   Mostly Cloudy
4:53 AM 44.1 °F 42.5 °F 39.0 °F 82% 30.07 in 10.0 mi WNW 3.5 mph - N/A   Mostly Cloudy
5:53 AM 44.1 °F - 39.0 °F 82% 30.07 in 10.0 mi Calm Calm - N/A   Overcast
6:53 AM 44.1 °F - 41.0 °F 89% 30.07 in 10.0 mi Calm Calm - N/A   Overcast
7:53 AM 44.1 °F 42.5 °F 39.9 °F 85% 30.08 in 10.0 mi SW 3.5 mph - 0.00 in   Overcast
8:23 AM 44.6 °F 43.1 °F 41.0 °F 87% 30.07 in 10.0 mi SSW 3.5 mph - N/A   Overcast
8:53 AM 45.0 °F 42.6 °F 41.0 °F 86% 30.09 in 10.0 mi WSW 4.6 mph - N/A   Overcast
9:53 AM 46.0 °F 44.8 °F 41.0 °F 83% 30.10 in 10.0 mi WSW 3.5 mph - N/A   Overcast
10:02 AM 46.4 °F 44.3 °F 41.0 °F 81% 30.09 in 10.0 mi SW 4.6 mph - N/A   Overcast
10:20 AM 46.4 °F 42.9 °F 39.2 °F 76% 30.09 in 10.0 mi WSW 6.9 mph - N/A   Overcast
10:37 AM 46.4 °F 42.9 °F 41.0 °F 81% 30.09 in 10.0 mi WSW 6.9 mph - N/A   Overcast
10:53 AM 46.0 °F 43.1 °F 41.0 °F 83% 30.10 in 10.0 mi West 5.8 mph - N/A   Overcast
11:01 AM 46.4 °F 43.5 °F 41.0 °F 81% 30.09 in 10.0 mi WSW 5.8 mph - N/A   Overcast
11:32 AM 46.4 °F 41.9 °F 39.2 °F 76% 30.09 in 10.0 mi NW 9.2 mph - N/A   Overcast
11:53 AM 45.0 °F 41.2 °F 39.0 °F 80% 30.09 in 10.0 mi WNW 6.9 mph - N/A   Overcast
12:07 PM 44.6 °F 43.1 °F 39.2 °F 81% 30.09 in 9.0 mi WNW 3.5 mph - 0.00 in Rain Light Rain
12:53 PM 46.0 °F 42.5 °F 41.0 °F 83% 30.10 in 10.0 mi WSW 6.9 mph - 0.02 in Rain Light Rain
1:13 PM 46.4 °F 41.9 °F 41.0 °F 81% 30.09 in 9.0 mi WSW 9.2 mph - 0.01 in Rain Light Rain
1:48 PM 44.6 °F 40.7 °F 39.2 °F 81% 30.09 in 7.0 mi West 6.9 mph - 0.03 in Rain Light Rain
1:53 PM 44.1 °F 39.5 °F 39.9 °F 85% 30.11 in 10.0 mi WNW 8.1 mph - 0.03 in Rain Light Rain
2:02 PM 44.6 °F 40.7 °F 39.2 °F 81% 30.09 in 9.0 mi WNW 6.9 mph - 0.01 in Rain Light Rain
2:53 PM 43.0 °F 37.7 °F 37.9 °F 82% 30.11 in 10.0 mi WNW 9.2 mph - 0.03 in Rain Light Rain
3:53 PM 44.1 °F 40.8 °F 37.9 °F 79% 30.11 in 10.0 mi WNW 5.8 mph - 0.01 in   Overcast
4:53 PM 45.0 °F 39.3 °F 39.0 °F 80% 30.12 in 10.0 mi WSW 11.5 mph - N/A   Overcast
5:53 PM 44.1 °F 40.1 °F 37.0 °F 76% 30.12 in 10.0 mi SW 6.9 mph - N/A   Mostly Cloudy
6:53 PM 43.0 °F 38.2 °F 36.0 °F 76% 30.14 in 10.0 mi SW 8.1 mph - N/A   Overcast
7:53 PM 42.1 °F 37.7 °F 36.0 °F 79% 30.14 in 10.0 mi WSW 6.9 mph - N/A   Mostly Cloudy
8:53 PM 42.1 °F 37.7 °F 37.0 °F 82% 30.16 in 10.0 mi West 6.9 mph - 0.00 in Rain Light Rain
9:53 PM 42.1 °F 38.4 °F 37.9 °F 85% 30.16 in 10.0 mi South 5.8 mph - 0.00 in Rain Light Rain
10:53 PM 42.1 °F 39.2 °F 37.9 °F 85% 30.17 in 10.0 mi South 4.6 mph - 0.00 in   Overcast
11:53 PM 42.1 °F 38.4 °F 37.9 °F 85% 30.16 in 10.0 mi South 5.8 mph - N/A   Overcast